RIO_GALLEGOS_ARPT current weather conditions

sailwx.info

Wind from 250 at 20 knots

Air temperature 10.0° C
Visibility: greater than 5.4 NM
Dewpoint -1.0° C

Last reported at 2017-Apr-29 19:00 UTC.
Time now 2017-Apr-29 19:31 UTC

Location: S 51°37' W 069°17'.
View on Google Maps.

See reports from other nearby stations

  
Tides and Currents Weather Stations Pressure Air Temp Water Temp Dewpoint Dewpoint Depression Visibility Wind Speed Wind Dir Waves Ship Positions
date/time (UTC)wind fromknots sea level pressurealtimeterstation pressurevisibilityair tempwater tempwave heightnotes
2017-Apr-29 19:00 250 20 5.410.0
2017-Apr-29 18:00 250 21 gusting 32 5.410.0
2017-Apr-29 17:00 250 21 gusting 32 5.410.0
2017-Apr-29 16:00 270 20 gusting 29 5.4 8.0
2017-Apr-29 15:00 270 17 5.4 8.0
2017-Apr-29 14:00 270 19 5.4 6.0
2017-Apr-29 13:00 270 15 5.4 6.0
2017-Apr-29 12:00 270 11 5.4 6.0
2017-Apr-29 11:00 290 6 5.4 4.0
2017-Apr-29 10:00 270 7 5.4 5.0
2017-Apr-29 09:00 270 7 5.4 7.0
2017-Apr-29 08:00 320 13 5.4 8.0
2017-Apr-29 07:00 320 13 5.4 8.0
2017-Apr-29 06:00 320 15 5.4 8.0
2017-Apr-29 05:00 340 18 5.4 8.0
2017-Apr-29 04:00 340 17 5.4 8.0
2017-Apr-29 03:00 360 12 5.4 7.0
2017-Apr-29 02:00 340 1 5.4 7.0
2017-Apr-29 01:00 5.4 7.0
2017-Apr-29 00:00 5.4 8.0
2017-Apr-28 23:00 270 6 5.4 9.0
2017-Apr-28 22:00 230 11 5.4 9.0
2017-Apr-28 21:00 270 20 5.410.0
2017-Apr-28 20:00 250 21 gusting 33 5.412.0
2017-Apr-28 19:00 250 21 gusting 32 5.412.0
2017-Apr-28 18:00 270 18 gusting 27 5.412.0
2017-Apr-28 17:00 270 20 gusting 31 5.412.0
2017-Apr-28 16:00 270 18 5.411.0
2017-Apr-28 15:00 290 11 5.4 9.0
2017-Apr-28 14:00 270 4 5.4 6.0
2017-Apr-28 13:00 290 5 5.4 5.0
2017-Apr-28 12:00 320 8 5.4 5.0
2017-Apr-28 11:00 360 5 5.4 4.0
2017-Apr-28 10:00 270 5 5.4 4.0
2017-Apr-28 09:00 290 5 5.4 4.0 Light rain.
2017-Apr-28 08:00 270 1 5.4 3.0 Light rain.
2017-Apr-28 07:00 270 2 5.4 3.0
2017-Apr-28 06:00 270 6 5.4 2.0
2017-Apr-28 05:00 290 4 5.4 2.0
2017-Apr-28 04:00 270 9 5.4 3.0
2017-Apr-28 03:00 270 12 5.4 3.0
2017-Apr-28 02:00 270 11 5.4 3.0
2017-Apr-28 01:00 270 13 5.4 4.0
2017-Apr-27 23:00 270 12 5.4 6.0
2017-Apr-27 22:00 290 7 5.4 7.0
2017-Apr-27 21:00 270 9 5.4 8.0
2017-Apr-27 20:00 270 13 5.4 9.0
2017-Apr-27 19:00 270 17 5.4 9.0